Regional Weather Roundup
Issued by NWS Newport/Morehead, NC

Current Version | Previous Version | Text Only | Print | Product List | Glossary Off
Versions: 1 2 3 4 5 6 7 8 9 10 11 12 13 14 15 16 17 18 19 20 21 22 23 24 25 26 27 28 29 30 31 32 33 34 35 36 37 38 39 40 41 42 43 44 45 46 47 48 49 50
000 ASUS42 KMHX 252222 RWRMHX WEATHER ROUNDUP FOR EASTERN NORTH CAROLINA NATIONAL WEATHER SERVICE NEWPORT/MOREHEAD CITY NC 600 PM EDT SAT OCT 25 2014 NOTE: "FAIR" INDICATES FEW OR NO CLOUDS BELOW 12,000 FEET WITH NO SIGNIFICANT WEATHER AND/OR OBSTRUCTIONS TO VISIBILITY NCZ015>017-031-032-045>047-102-103-252300- NORTH COAST CITY SKY/WX TMP DP RH WIND PRES REMARKS EDENTON CLEAR 63 52 67 CALM 29.88R ELIZABETH CITY CLEAR 66 45 46 W7 29.87R KITTY HAWK CLEAR 62 50 64 W3 29.86R MANTEO CLEAR 63 54 72 S6 29.88R $$ NCZ045>047-081-094-103-104-252300- CENTRAL COAST CITY SKY/WX TMP DP RH WIND PRES REMARKS FRISCO CLEAR 63 52 67 W7 29.88S SWANQUARTER N/A 64 N/A N/A SW5 29.85S $$ NCZ095-097-098-100-101-252300- SOUTHERN COAST CITY SKY/WX TMP DP RH WIND PRES REMARKS BEAUFORT CLEAR 66 50 56 SW8 29.89S CEDAR ISLAND N/A 64 N/A N/A S5 29.91S JACKSONVILLE CLEAR 66 53 63 S8 29.88F PINEY ISLAND CLEAR 70 47 43 S3 29.88F WILMINGTON CLEAR 68 52 56 S6 29.90S $$ NCZ011>013-027>030-043-044-078>080-089-090>093-098-252300- COASTAL PLAIN CITY SKY/WX TMP DP RH WIND PRES REMARKS AHOSKIE CLEAR 59 49 68 CALM 29.88S CLINTON CLEAR 69 48 48 W3 29.91S ELIZABETHTOWN CLEAR 67 47 48 CALM 29.91S GOLDSBORO CLEAR 68 48 48 W3 29.88S GREENVILLE CLEAR 68 45 42 CALM 29.91R HAVELOCK CLEAR 66 52 60 S8 29.89F KENANSVILLE CLEAR 61 47 60 CALM 29.91R KINSTON CLEAR 72 43 35 SW6 29.90 NEW BERN CLEAR 68 51 54 SW3 29.89F RICHLANDS CLEAR 64 48 55 W5 29.90S ROCKY MOUNT CLEAR 66 48 52 S3 29.89R WASHINGTON CLEAR 64 47 53 CALM 29.89R WHITEVILLE CLEAR 64 46 50 CALM 29.91F $$ AMZ130-135-150-152-154-156-158-170-250-252-270-ANZ085-086-088-633-658-670-252300- MARINE OBSERVATIONS STATION/POSITION TIME TEMP WIND PRES WAVE SWELL AIR SEA DIR/SP/G HT/PER HT/PER (UTC) (F) (DEG/KT/KT) (MB) (FT/S) (FT/S) CHESAPEAKE LIGHT 2200 63 200/ 5/ 5 1011.1 64 E VA BEACH 2200 64 66 270/ 12/ 14 1010.2 2/ 9 2/ 9 DUCK 2200 65 66 200/ 4/ 5 1010.6 2 E DUCK 2200 N/A 3/ 9 2/11 10 NE DUCK 2200 67 N/A 3/10 2/11 OREGON INLET 2200 64 66 190/ 8/ 9 1011.3 13E OREGON INLT 2200 69 N/A 3/10 2/11 HATTERAS CG 2200 67 67 260/ 9/ 11 1012.2 DIAMOND BUOY 2200 68 250/ 10/ 14 1011.8 3/10 2/10 17 S OCRACOKE 2100 VRB 4/ 6 1012.1 CAPE LOOKOUT 2200 66 220/ 6/ 8 1012.1 BEAUFORT LAB 2200 67 68 230/ 4/ 6 1011.5 30 SE NEW RIVER 2200 68 75 220/ 8/ 10 1012.3 2/ 9 2/ 9 5 SE WRIGHTSVLE 2200 66 72 210/ 14/ 16 N/A 225 S CAPE HAT 2116 73 77 360/ 10/ 12 1012.5 4/ 8 3/ 8 41 SE CHARLESTON 2200 70 77 270/ 2/ 4 1013.8 2/10 2/10 $$

USA.gov is the U.S. government's official web portal to all federal, state and local government web resources and services.